Flag for U.S.A. Weather past 2 weeks in Irving, Texas, U.S.A.

Now
38 °F

Fog.


Feels Like: 34 °F
Forecast: 34 / 42 °F
Wind: 5 mph from North

Location: Dallas / Fort Worth International Airport

Current Time: Mar 2, 2015 at 2:09:26 PM

Latest Report: Mar 2, 2015 at 12:53 PM


Visibility: 2 mi

Pressure: 30.32 "Hg

Humidity: 90%

Dew point: 35 °F

Location of IrvingLocation

Historic Weather in Irving — Graph

°F

Irving temperature yesterday

Maximum temperature yesterday: 37 °F (at 2:53 PM)
Minimum temperature yesterday: 32 °F (at 12:53 AM)
Average temperature yesterday: 34 °F

Past Weeks' High & Low Weather Summary

 TemperatureHumidityPressure
High73 °F (Feb 15, 1:53 PM)97% (Mar 1, 10:53 AM)30.58 "Hg (Mar 1, 10:53 AM)
Low24 °F (Feb 27, 10:53 AM)39% (Feb 18, 3:53 PM)29.64 "Hg (Feb 21, 2:53 AM)
Average39 °F76%30.19 "Hg
* Reported Feb 15 12:53 PM — Mar 2 12:53 PM, Irving, Weather by CustomWeather, © 2015

Note: Actual official high and low records may vary slightly from our data, if they occured in-between our weather recording intervals... More about our weather records

Advertising

Irving weather history for previous 24 hours

 ConditionsComfort  
Time TempWeatherWind HumidityBarometerVisibility
12:53 PM
Mon, Mar 2
38 °FFog.5 mph90%30.32 "Hg2 mi
11:53 AM37 °FFog.6 mph93%30.36 "Hg1 mi
10:53 AM35 °FDrizzle. Fog.9 mph96%30.38 "Hg1 mi
9:53 AM35 °FDrizzle. Fog.10 mph92%30.39 "Hg1 mi
8:53 AM34 °FDrizzle. Fog.15 mph92%30.39 "Hg1 mi
7:53 AM33 °FDrizzle. Fog.12 mph96%30.39 "Hg1 mi
6:53 AM33 °FDrizzle. Fog.13 mph96%30.38 "Hg1 mi
5:53 AM34 °FLow clouds.10 mph92%30.38 "Hg8 mi
4:53 AM34 °FLow clouds.14 mph92%30.35 "Hg7 mi
3:53 AM34 °FDrizzle. Fog.15 mph97%30.37 "Hg6 mi
2:53 AM35 °FDrizzle. Fog.12 mph92%30.37 "Hg4 mi
1:53 AM35 °FLight rain. Fog.15 mph88%30.40 "Hg5 mi
12:53 AM36 °FOvercast.15 mph89%30.39 "Hg10 mi
11:53 PM
Sun, Mar 1
36 °FMostly cloudy.15 mph89%30.39 "Hg8 mi
10:53 PM36 °FMostly cloudy.13 mph92%30.39 "Hg10 mi
9:53 PM37 °FOvercast.12 mph86%30.39 "Hg10 mi
8:53 PM37 °FMostly cloudy.12 mph89%30.37 "Hg10 mi
7:53 PM37 °FMostly cloudy.10 mph89%30.36 "Hg10 mi
6:53 PM36 °FMostly cloudy.9 mph92%30.34 "Hg10 mi
5:53 PM36 °FLow clouds.10 mph92%30.34 "Hg10 mi
4:53 PM36 °FLow clouds.12 mph92%30.33 "Hg10 mi
3:53 PM36 °FLow clouds.13 mph92%30.33 "Hg10 mi
2:53 PM37 °FLow clouds.14 mph89%30.32 "Hg10 mi
Weather by CustomWeather, © 2015

See weather overviewHow to use our weather pages